Find Starlink 36181

NORAD ID: 68047 Int'l Des: 2026-041 Owner: SPXS Country: US Constellation: starlink operational
LEOCIRCULAR

リアルタイム位置

3D地球を読み込み中...

Starlink 36181について

説明を読み込み中...

次回通過

Passes for default location (London). Set your location on the main map for personalized predictions.

高度履歴

Loading altitude history...

軌道要素

1 68047U 26041H 26106.91668981 -.01790800 00000-0 -48636-1 0 9996
2 68047 53.1613 232.4392 0001687 56.8415 143.5437 15.40230531 6021
Epoch: Apr 16, 2026 • Age: 12 hours

現在のステータス

高度 454.8 km
速度 7.64 km/s
衛星直下点 -15.29°S, 129.86°W
打ち上げ日 Mar 2, 2026
運用期間 0.1 years
タイプ internet

技術仕様

分類 Payload
質量 575.00 kg
乾燥質量 530.00 kg
総質量 575.00 kg
長さ 0.30 m
直径 4.10 m
スパン 29.00 m
形状 Box + pan
製造者 SPXS
バスタイプ Starlink V2MO
フェーズステータス In Orbit
所有者/国 SPXS/US

Most Searched